Other Public Products
Issued by NWS Charleston, SC

Current Version | Previous Version | Graphics & Text | Print | Product List | Glossary On
Versions: 1 2 3 4 5 6 7 8 9 10 11 12 13 14 15 16 17 18 19 20 21 22 23 24 25 26 27 28 29 30 31 32 33 34 35 36 37 38 39 40 41 42 43 44 45 46 47 48 49 50
893 FPUS82 KCHS 271212 OPUCHS TEST...KCHS/KSAV Gateway Observations...TEST National Weather Service Charleston SC 800 AM EDT TUE JUN 27 2017 NOTE: "fair" indicates few or no clouds below 12,000 feet with no significant weather and/or obstructions to visibility. SCZ050-WAZ558-NCZ071-TXZ119-213-PAZ071-DCZ001-FLZ074-172-MI076- NYZ176-178-MAZ016-IL014-TNZ027-NJZ106-GAZ044-MD014-271300- ...Gateway Observations for Charleston International... CITY SKY/WX TMP DP RH WIND PRES REMARKS Chas Airport PTSUNNY 75 67 76 CALM 30.03S 6HR MIN TEMP: 69; 6HR MAX TEMP: 75; Seattle CLOUDY 54 49 83 S6 30.05R 6HR MIN TEMP: 53; 6HR MAX TEMP: 58; Charlotte PTSUNNY 71 58 63 CALM 30.07S 6HR MIN TEMP: 62; 6HR MAX TEMP: 71; Dallas DFW MOCLDY 75 71 87 E3 30.02R 6HR MIN TEMP: 74; 6HR MAX TEMP: 79; Dallas Love MOCLDY 76 71 85 E7 30.03R 6HR MIN TEMP: 76; 6HR MAX TEMP: 80; Philladelphia PTSUNNY 65 60 84 NW3 30.02R 6HR MIN TEMP: 61; 6HR MAX TEMP: 71; 6HR PCP: 0.25; Wash National CLOUDY 72 54 53 N5 30.04S 6HR MIN TEMP: 68; 6HR MAX TEMP: 73; 6HR PCP: TRACE; Baltimore CLOUDY 67 57 70 CALM 30.03R 6HR MIN TEMP: 60; 6HR MAX TEMP: 70; 6HR PCP: TRACE; Miami PTSUNNY 84 76 76 S6 30.00R HX 93 6HR MIN TEMP: 81; 6HR MAX TEMP: 84; Detroit MOSUNNY 56 49 77 W8 30.05R 6HR MIN TEMP: 52; 6HR MAX TEMP: 56; Newark MOSUNNY 65 59 81 CALM 30.00S 6HR MIN TEMP: 62; 6HR MAX TEMP: 69; 6HR PCP: 0.14; Laguardia PTSUNNY 63 60 90 NE7 30.01R 6HR MIN TEMP: 62; 6HR MAX TEMP: 74; 6HR PCP: 0.16; J F K PTSUNNY 65 61 87 N5 30.02R 6HR MIN TEMP: 62; 6HR MAX TEMP: 71; 6HR PCP: 0.11; Boston Logan PTSUNNY 63 57 81 SE6 30.00S 6HR MIN TEMP: 59; 6HR MAX TEMP: 65; Ft. Lauderdale PTSUNNY 82 76 81 S6 29.99R 6HR MIN TEMP: 78; 6HR MAX TEMP: 82; Chicago O`Hare SUNNY 58 47 66 W8 30.12R 6HR MIN TEMP: 50; 6HR MAX TEMP: 58; Chicago Midway SUNNY 57 48 72 SW5 30.12S 6HR MIN TEMP: 54; 6HR MAX TEMP: 58; Houston Bush CLOUDY 75 73 93 N5 29.99S 6HR MIN TEMP: 74; 6HR MAX TEMP: 77; Houston Hobby MOCLDY 77 74 90 CALM 29.98S 6HR MIN TEMP: 76; 6HR MAX TEMP: 77; Nashville PTSUNNY 66 58 75 CALM 30.14R 6HR MIN TEMP: 64; 6HR MAX TEMP: 70; Atlanta CLOUDY 69 61 75 NW5 30.09R 6HR MIN TEMP: 66; 6HR MAX TEMP: 72; $$ GAZ044-118-TXZ119-213-NCZ071-DCZ001-MDZ014-506-PAZ021-071-NJZ106- NYZ176-178-MAZ106-OHZ011-021-055-MIZ076-KYZ091-ILZ014-INZ047- MNZ060-ONZ431-271300- ...Gateway Observations for Savannah International... CITY SKY/WX TMP DP RH WIND PRES REMARKS Savannah Arpt CLOUDY 75 71 87 N3 30.04R 6HR MIN TEMP: 73; 6HR MAX TEMP: 75; Atlanta CLOUDY 69 61 75 NW5 30.09R 6HR MIN TEMP: 66; 6HR MAX TEMP: 72; Charlotte PTSUNNY 71 58 63 CALM 30.07S 6HR MIN TEMP: 62; 6HR MAX TEMP: 71; Dallas DFW MOCLDY 75 71 87 E3 30.02R 6HR MIN TEMP: 74; 6HR MAX TEMP: 79; Houston Bush CLOUDY 75 73 93 N5 29.99S 6HR MIN TEMP: 74; 6HR MAX TEMP: 77; Wash National CLOUDY 72 54 53 N5 30.04S 6HR MIN TEMP: 68; 6HR MAX TEMP: 73; 6HR PCP: TRACE; Wash Dulles CLOUDY 67 52 58 NW5 30.04R 6HR MIN TEMP: 59; 6HR MAX TEMP: 70; Baltimore CLOUDY 67 57 70 CALM 30.03R 6HR MIN TEMP: 60; 6HR MAX TEMP: 70; 6HR PCP: TRACE; Philadelphia PTSUNNY 65 60 84 NW3 30.02R 6HR MIN TEMP: 61; 6HR MAX TEMP: 71; 6HR PCP: 0.25; Newark MOSUNNY 65 59 81 CALM 30.00S 6HR MIN TEMP: 62; 6HR MAX TEMP: 69; 6HR PCP: 0.14; Laguardia PTSUNNY 63 60 90 NE7 30.01R 6HR MIN TEMP: 62; 6HR MAX TEMP: 74; 6HR PCP: 0.16; J F K PTSUNNY 65 61 87 N5 30.02R 6HR MIN TEMP: 62; 6HR MAX TEMP: 71; 6HR PCP: 0.11; Boston PTSUNNY 63 57 81 SE6 30.00S 6HR MIN TEMP: 59; 6HR MAX TEMP: 65; Pittsburg MOSUNNY 57 51 80 W8 30.05R 6HR MIN TEMP: 54; 6HR MAX TEMP: 58; 6HR PCP: TRACE; Akron MOSUNNY 55 48 77 W13 30.06R 6HR MIN TEMP: 52; 6HR MAX TEMP: 56; Cleveland CLOUDY 55 50 83 SW9 30.06R 6HR MIN TEMP: 53; 6HR MAX TEMP: 56; Cincinnati SUNNY 57 52 83 W6 30.14R 6HR MIN TEMP: 51; 6HR MAX TEMP: 59; Columbus SUNNY 55 52 91 W5 30.11R Detroit MOSUNNY 56 49 77 W8 30.05R 6HR MIN TEMP: 52; 6HR MAX TEMP: 56; Chicago O`Hare SUNNY 58 47 66 W8 30.12R 6HR MIN TEMP: 50; 6HR MAX TEMP: 58; Minneapolis MOSUNNY 56 45 66 SW6 30.10R 6HR MIN TEMP: 55; 6HR MAX TEMP: 60; Indianapolis SUNNY 56 51 84 W5 30.15R 6HR MIN TEMP: 51; 6HR MAX TEMP: 56; Toronto Canada PTSUNNY 55 50 82 SW10 29.93R $$

USA.gov is the U.S. government's official web portal to all federal, state and local government web resources and services.